When you browse on this site, cookies collect data to enhance your experience and personalize the content and advertising you see.
Visit our Privacy Policy to learn more. By continuing to use the site, you agree to this use of cookies and data.
  • In Hungary
  • List of Countries
  • For 7 days
  • Water Temperature
  • Weather Map
  • News
  • Weather Widgets
  • user-avatar
    Login

    Hourly Weather Smolevcy

    Today, 7 December, Saturday

    Time Temperature Precipitation Wind Pressure Humidity
    00:00 -1°C° 0.1 mm 5 mps 738 mmHg 87%
    01:00 -1°C° 0.1 mm 5 mps 738 mmHg 88%
    02:00 -1°C° 0.1 mm 5 mps 738 mmHg 89%
    03:00 -2°C° 0.2 mm 5 mps 737 mmHg 90%
    04:00 -2°C° 0.2 mm 5 mps 737 mmHg 91%
    05:00 -2°C° 0.2 mm 5 mps 737 mmHg 93%
    06:00 -2°C° 0.7 mm 5 mps 736 mmHg 93%
    07:00 -2°C° 0.7 mm 5 mps 736 mmHg 93%
    08:00 -2°C° 0.7 mm 5 mps 736 mmHg 93%
    09:00 -2°C° 0.3 mm 5 mps 736 mmHg 91%
    10:00 -2°C° 0.3 mm 5 mps 735 mmHg 89%
    11:00 -3°C° 0.3 mm 6 mps 735 mmHg 87%
    12:00 -3°C° 0 mm 6 mps 735 mmHg 84%
    13:00 -3°C° 0 mm 6 mps 734 mmHg 82%
    14:00 -3°C° 0 mm 6 mps 734 mmHg 80%
    15:00 -3°C° 0.1 mm 6 mps 733 mmHg 83%
    16:00 -3°C° 0.1 mm 6 mps 733 mmHg 86%
    17:00 -3°C° 0.1 mm 7 mps 732 mmHg 90%
    18:00 -2°C° 0 mm 7 mps 732 mmHg 90%
    19:00 -2°C° 0 mm 7 mps 732 mmHg 91%
    20:00 -1°C° 0 mm 7 mps 731 mmHg 91%
    21:00 0°C° 0.2 mm 7 mps 731 mmHg 91%
    22:00 0°C° 0.2 mm 7 mps 731 mmHg 92%
    23:00 +1°C° 0.2 mm 8 mps 730 mmHg 92%

    Tomorrow, 8 December, Sunday

    Time Temperature Precipitation Wind Pressure Humidity
    00:00 0°C° 0.1 mm 7 mps 731 mmHg 89%
    01:00 0°C° 0.1 mm 7 mps 731 mmHg 87%
    02:00 0°C° 0.1 mm 7 mps 731 mmHg 85%
    03:00 -1°C° 0 mm 7 mps 731 mmHg 84%
    04:00 -1°C° 0 mm 7 mps 731 mmHg 84%
    05:00 -1°C° 0 mm 7 mps 731 mmHg 84%
    06:00 -1°C° 0 mm 7 mps 732 mmHg 84%
    07:00 -1°C° 0 mm 7 mps 733 mmHg 85%
    08:00 -1°C° 0 mm 7 mps 734 mmHg 86%
    09:00 -1°C° 0 mm 7 mps 734 mmHg 86%
    10:00 -1°C° 0 mm 6 mps 735 mmHg 86%
    11:00 -1°C° 0 mm 6 mps 736 mmHg 86%
    12:00 -1°C° 0 mm 6 mps 736 mmHg 85%
    13:00 0°C° 0 mm 5 mps 736 mmHg 84%
    14:00 0°C° 0 mm 5 mps 736 mmHg 84%
    15:00 0°C° 0 mm 5 mps 736 mmHg 87%
    16:00 0°C° 0 mm 5 mps 735 mmHg 90%
    17:00 -1°C° 0 mm 5 mps 735 mmHg 92%
    18:00 0°C° 0 mm 5 mps 735 mmHg 93%
    19:00 0°C° 0 mm 5 mps 735 mmHg 93%
    20:00 -1°C° 0 mm 6 mps 735 mmHg 94%
    21:00 +1°C° 0.4 mm 6 mps 734 mmHg 93%
    22:00 +1°C° 0.4 mm 6 mps 734 mmHg 91%
    23:00 +2°C° 0.4 mm 6 mps 733 mmHg 90%

    Day after tomorrow, 9 December, Monday

    Time Temperature Precipitation Wind Pressure Humidity
    00:00 +2°C° 0.2 mm 6 mps 733 mmHg 90%
    01:00 +2°C° 0.2 mm 7 mps 732 mmHg 90%
    02:00 +2°C° 0.2 mm 7 mps 732 mmHg 90%
    03:00 +2°C° 0.1 mm 7 mps 732 mmHg 90%
    04:00 +2°C° 0.1 mm 7 mps 731 mmHg 90%
    05:00 +2°C° 0.1 mm 7 mps 731 mmHg 90%
    06:00 +2°C° 0 mm 7 mps 731 mmHg 89%
    07:00 +3°C° 0 mm 7 mps 731 mmHg 89%
    08:00 +3°C° 0 mm 7 mps 731 mmHg 89%
    09:00 +3°C° 0.1 mm 7 mps 732 mmHg 88%
    10:00 +4°C° 0.1 mm 6 mps 732 mmHg 88%
    11:00 +4°C° 0.1 mm 6 mps 732 mmHg 87%
    12:00 +4°C° 0.1 mm 6 mps 732 mmHg 87%
    13:00 +5°C° 0.1 mm 5 mps 732 mmHg 87%
    14:00 +5°C° 0.1 mm 5 mps 732 mmHg 86%
    15:00 +3°C° 0.1 mm 5 mps 732 mmHg 87%
    16:00 +3°C° 0.1 mm 5 mps 732 mmHg 88%
    17:00 +2°C° 0.1 mm 5 mps 733 mmHg 88%
    18:00 +3°C° 0 mm 4 mps 733 mmHg 90%
    19:00 +1°C° 0 mm 4 mps 734 mmHg 92%
    20:00 +2°C° 0 mm 3 mps 734 mmHg 93%
    21:00 +2°C° 0 mm 3 mps 734 mmHg 94%
    22:00 +1°C° 0 mm 3 mps 735 mmHg 94%
    23:00 +1°C° 0 mm 3 mps 735 mmHg 95%

    10 December, Tuesday

    Time Temperature Precipitation Wind Pressure Humidity
    00:00 +1°C° 0 mm 3 mps 735 mmHg 95%
    01:00 +1°C° 0 mm 3 mps 735 mmHg 95%
    02:00 +1°C° 0 mm 3 mps 735 mmHg 95%
    03:00 +1°C° 0 mm 3 mps 735 mmHg 94%
    04:00 +1°C° 0 mm 3 mps 735 mmHg 94%
    05:00 0°C° 0 mm 4 mps 735 mmHg 94%
    06:00 0°C° 0 mm 4 mps 735 mmHg 94%
    07:00 0°C° 0 mm 4 mps 735 mmHg 94%
    08:00 +1°C° 0 mm 4 mps 736 mmHg 94%
    09:00 +1°C° 0 mm 4 mps 736 mmHg 92%
    10:00 +1°C° 0 mm 4 mps 736 mmHg 91%
    11:00 +3°C° 0 mm 4 mps 736 mmHg 89%
    12:00 +3°C° 0 mm 4 mps 736 mmHg 88%
    13:00 +3°C° 0 mm 4 mps 736 mmHg 87%
    14:00 +3°C° 0 mm 4 mps 736 mmHg 86%
    15:00 +3°C° 0 mm 4 mps 737 mmHg 87%
    16:00 +1°C° 0 mm 4 mps 737 mmHg 88%
    17:00 +1°C° 0 mm 4 mps 738 mmHg 90%
    18:00 +1°C° 0.1 mm 4 mps 738 mmHg 92%
    19:00 +1°C° 0.1 mm 5 mps 739 mmHg 94%
    20:00 0°C° 0.1 mm 5 mps 740 mmHg 96%
    21:00 0°C° 0.2 mm 5 mps 741 mmHg 93%
    22:00 -1°C° 0.2 mm 5 mps 741 mmHg 90%
    23:00 -2°C° 0.2 mm 4 mps 742 mmHg 88%

    11 December, Wednesday

    Time Temperature Precipitation Wind Pressure Humidity
    00:00 -3°C° 0 mm 4 mps 743 mmHg 85%
    01:00 -3°C° 0 mm 4 mps 743 mmHg 83%
    02:00 -4°C° 0 mm 3 mps 744 mmHg 80%
    03:00 -4°C° 0 mm 3 mps 744 mmHg 82%
    04:00 -4°C° 0 mm 3 mps 745 mmHg 84%
    05:00 -4°C° 0 mm 3 mps 746 mmHg 86%
    06:00 -4°C° 0 mm 4 mps 746 mmHg 85%
    07:00 -4°C° 0 mm 4 mps 746 mmHg 85%
    08:00 -3°C° 0 mm 4 mps 747 mmHg 85%
    09:00 -3°C° 0 mm 4 mps 747 mmHg 82%
    10:00 -3°C° 0 mm 4 mps 748 mmHg 79%
    11:00 -3°C° 0 mm 4 mps 748 mmHg 77%
    12:00 -2°C° 0 mm 4 mps 748 mmHg 76%
    13:00 -1°C° 0 mm 3 mps 749 mmHg 76%
    14:00 -1°C° 0 mm 3 mps 749 mmHg 76%
    15:00 -2°C° 0 mm 3 mps 749 mmHg 80%
    16:00 -3°C° 0 mm 2 mps 750 mmHg 83%
    17:00 -3°C° 0 mm 2 mps 750 mmHg 87%
    18:00 -3°C° 0 mm 2 mps 750 mmHg 86%
    19:00 -3°C° 0 mm 2 mps 750 mmHg 86%
    20:00 -1°C° 0 mm 1 mps 750 mmHg 85%
    21:00 -1°C° 0 mm 1 mps 751 mmHg 84%
    22:00 -3°C° 0 mm 2 mps 751 mmHg 82%
    23:00 -3°C° 0 mm 2 mps 751 mmHg 80%

    12 December, Thursday

    Time Temperature Precipitation Wind Pressure Humidity
    00:00 -3°C° 0 mm 2 mps 751 mmHg 79%
    01:00 -3°C° 0 mm 2 mps 751 mmHg 79%
    02:00 -3°C° 0 mm 2 mps 750 mmHg 78%
    03:00 -3°C° 0 mm 2 mps 750 mmHg 77%
    04:00 -3°C° 0 mm 2 mps 750 mmHg 76%
    05:00 -3°C° 0 mm 2 mps 750 mmHg 75%
    06:00 -3°C° 0 mm 2 mps 750 mmHg 75%
    07:00 -4°C° 0 mm 3 mps 750 mmHg 75%
    08:00 -5°C° 0 mm 3 mps 750 mmHg 75%
    09:00 -4°C° 0 mm 3 mps 749 mmHg 71%
    10:00 -4°C° 0 mm 3 mps 749 mmHg 68%
    11:00 -3°C° 0 mm 4 mps 749 mmHg 65%
    12:00 -3°C° 0 mm 4 mps 749 mmHg 65%
    13:00 -3°C° 0 mm 4 mps 749 mmHg 64%
    14:00 -3°C° 0 mm 4 mps 748 mmHg 63%
    15:00 -4°C° 0 mm 4 mps 748 mmHg 66%
    16:00 -4°C° 0 mm 4 mps 748 mmHg 68%
    17:00 -5°C° 0 mm 4 mps 748 mmHg 70%
    18:00 -5°C° 0 mm 4 mps 747 mmHg 71%
    19:00 -5°C° 0 mm 4 mps 747 mmHg 71%
    20:00 -5°C° 0 mm 4 mps 747 mmHg 71%
    21:00 -5°C° 0 mm 4 mps 747 mmHg 72%
    22:00 -5°C° 0 mm 4 mps 747 mmHg 73%
    23:00 -5°C° 0 mm 4 mps 746 mmHg 73%
    Show more